Find Starlink 34027

NORAD ID: 63936 Int'l Des: 2025-098 Owner: SPXS Country: US Constellation: starlink operational
LEOCIRCULAR

当前视图

正在加载3D地球...

About Starlink 34027

Starlink 34027 (NORAD 63936) is a starlink constellation satellite (v2 mini) launched May 13, 2025 by SPXS of US. It operates in LEO, CIRCULAR orbit with a mass of 575.00 kg.

即将过境

Passes for default location (London). Set your location on the main map for personalized predictions.

高度历史

Loading altitude history...

两行轨道根数

1 63936U 25098L 26237.17014235 .00001648 00000-0 14585-3 0 9999
2 63936 69.9997 209.4734 0003764 263.1486 96.9245 14.98334316 71798
Epoch: Aug 25, 2026 • Age: 9 hours

当前状态

高度 586.9 km
远地点 / 近地点 N/A
速度 7.57 km/s
星下点 -45.69°S, 120.25°W
发射日期 May 13, 2025
运行时间 1.2 years
类型 internet

技术详情

分类 Payload
质量 575.00 kg
干质量 530.00 kg
总质量 575.00 kg
长度 0.30 m
直径 4.10 m
跨度 29.00 m
形状 Box + pan
制造商 SPXS
平台类型 Starlink V2MO
阶段状态 In Orbit
所有者/国家 SPXS/US

Most Searched